Location: Arlington
(31.4185°N, 90.5568°W)
Time: 11:54:32
(UTC+00:00)

ISS - Pass Details

Date: 06 October 2021
Orbit: 417 x 423 km, 51.6° (Epoch: 18 October)

Event Time Altitude Azimuth Distance (km) Brightness Sun altitude
Rises 00:34:16 0° 326° (NW) 2,360 0.6 -12.0°
Reaches altitude 10° 00:36:35 10° 339° (NNW) 1,495 -0.7 -12.5°
Maximum altitude 00:39:29 26° 39° (NE) 854 -2.5 -13.1°
Enters shadow 00:40:28 23° 69° (ENE) 951 -2.5 -13.3°
